Satellite: NOAA-14 Catalog number: 23455 Epoch time: 14154.42553738 Element set: 771 Inclination: 098.7784 deg RA of node: 238.1059 deg Eccentricity: 0.0010504 Arg of perigee: 082.0760 deg Mean anomaly: 029.9569 deg Mean motion: 14.13974403 rev/day Decay rate: -6.0e-08 rev/day^2 Epoch rev: 200 Checksum: 292
Satellite: NOAA-15 Catalog number: 25338 Epoch time: 14154.50667801 Element set: 205 Inclination: 098.7512 deg RA of node: 148.3926 deg Eccentricity: 0.0010776 Arg of perigee: 181.6771 deg Mean anomaly: 288.2881 deg Mean motion: 14.25424884 rev/day Decay rate: 1.63e-06 rev/day^2 Epoch rev: 83489 Checksum: 330
Satellite: RESURS Catalog number: 25394 Epoch time: 14156.50209530 Element set: 672 Inclination: 098.4111 deg RA of node: 121.3659 deg Eccentricity: 0.0000414 Arg of perigee: 357.2970 deg Mean anomaly: 111.0616 deg Mean motion: 14.24395201 rev/day Decay rate: -5.5e-07 rev/day^2 Epoch rev: 82665 Checksum: 267
Satellite: FENGYUN1 Catalog number: 25730 Epoch time: 14156.85267797 Element set: 162 Inclination: 098.9116 deg RA of node: 118.0144 deg Eccentricity: 0.0026180 Arg of perigee: 139.6082 deg Mean anomaly: 273.2323 deg Mean motion: 14.11888324 rev/day Decay rate: 6.11e-06 rev/day^2 Epoch rev: 77592 Checksum: 303
Satellite: OKEAN-0 Catalog number: 25860 Epoch time: 14156.45722664 Element set: 268 Inclination: 098.0411 deg RA of node: 120.3923 deg Eccentricity: 0.0002093 Arg of perigee: 102.4390 deg Mean anomaly: 050.0896 deg Mean motion: 14.75267649 rev/day Decay rate: 3.25e-06 rev/day^2 Epoch rev: 80042 Checksum: 279
Satellite: NOAA-16 Catalog number: 26536 Epoch time: 14154.43926722 Element set: 695 Inclination: 098.9915 deg RA of node: 214.7429 deg Eccentricity: 0.0010141 Arg of perigee: 219.1371 deg Mean anomaly: 262.2437 deg Mean motion: 14.13045765 rev/day Decay rate: 1.76e-06 rev/day^2 Epoch rev: 70617 Checksum: 307
Satellite: NOAA-17 Catalog number: 27453 Epoch time: 14155.48184723 Element set: 600 Inclination: 098.3130 deg RA of node: 155.8634 deg Eccentricity: 0.0011339 Arg of perigee: 205.3716 deg Mean anomaly: 154.6909 deg Mean motion: 14.24748532 rev/day Decay rate: 6.6e-07 rev/day^2 Epoch rev: 62087 Checksum: 305
Satellite: NOAA-18 Catalog number: 28654 Epoch time: 14154.50587271 Element set: 95 Inclination: 099.1463 deg RA of node: 133.7315 deg Eccentricity: 0.0013278 Arg of perigee: 304.8272 deg Mean anomaly: 165.4719 deg Mean motion: 14.12020718 rev/day Decay rate: 2.53e-06 rev/day^2 Epoch rev: 46563 Checksum: 303
Satellite: NOAA-19 Catalog number: 33591 Epoch time: 14154.46662535 Element set: 252 Inclination: 098.9434 deg RA of node: 099.5455 deg Eccentricity: 0.0014630 Arg of perigee: 154.4949 deg Mean anomaly: 343.5589 deg Mean motion: 14.11719135 rev/day Decay rate: 1.45e-06 rev/day^2 Epoch rev: 27405 Checksum: 324
/EX SB KEPS @ AMSAT $ORB14156.M Orbital Elements 14156.MISC
HR AMSAT ORBITAL ELEMENTS FOR MANNED AND MISCELLANEOUS SATELLITES FROM WA5QGD FORT WORTH,TX June 5, 2014 BID: ORB14156.M TO ALL RADIO AMATEURS BT
Satellite: HUBBLE Catalog number: 20580 Epoch time: 14156.12909361 Element set: 27 Inclination: 028.4701 deg RA of node: 116.3944 deg Eccentricity: 0.0003034 Arg of perigee: 152.2805 deg Mean anomaly: 304.7170 deg Mean motion: 15.05415602 rev/day Decay rate: 1.226e-05 rev/day^2 Epoch rev: 12289 Checksum: 247
Satellite: ISS Catalog number: 25544 Epoch time: 14156.82220266 Element set: 430 Inclination: 051.6469 deg RA of node: 155.9245 deg Eccentricity: 0.0004319 Arg of perigee: 072.8789 deg Mean anomaly: 349.7404 deg Mean motion: 15.50575515 rev/day Decay rate: 3.903e-05 rev/day^2 Epoch rev: 88956 Checksum: 321
Satellite: CO-58 Catalog number: 28895 Epoch time: 14156.50604207 Element set: 785 Inclination: 097.8360 deg RA of node: 358.9808 deg Eccentricity: 0.0018305 Arg of perigee: 051.7360 deg Mean anomaly: 308.5486 deg Mean motion: 14.61880831 rev/day Decay rate: 4.74e-06 rev/day^2 Epoch rev: 45854 Checksum: 344
Satellite: FALCON Catalog number: 30776 Epoch time: 14156.53056757 Element set: 882 Inclination: 035.4280 deg RA of node: 185.9133 deg Eccentricity: 0.0002710 Arg of perigee: 209.1465 deg Mean anomaly: 278.7830 deg Mean motion: 15.16184107 rev/day Decay rate: 3.832e-05 rev/day^2 Epoch rev: 39896 Checksum: 313
Satellite: MAST Catalog number: 31126 Epoch time: 14156.52486124 Element set: 61 Inclination: 097.9125 deg RA of node: 138.0261 deg Eccentricity: 0.0092637 Arg of perigee: 031.6814 deg Mean anomaly: 081.9855 deg Mean motion: 14.55268196 rev/day Decay rate: 4.86e-06 rev/day^2 Epoch rev: 37869 Checksum: 316
Satellite: CAPE1 Catalog number: 31130 Epoch time: 14156.44725462 Element set: 67 Inclination: 097.9334 deg RA of node: 134.5913 deg Eccentricity: 0.0100020 Arg of perigee: 049.5999 deg Mean anomaly: 311.3874 deg Mean motion: 14.54425404 rev/day Decay rate: 7.11e-06 rev/day^2 Epoch rev: 37810 Checksum: 279
Satellite: COMPASS Catalog number: 32787 Epoch time: 14156.73367135 Element set: 948 Inclination: 097.7028 deg RA of node: 210.5925 deg Eccentricity: 0.0013480 Arg of perigee: 212.5658 deg Mean anomaly: 147.4729 deg Mean motion: 14.87857425 rev/day Decay rate: 2.176e-05 rev/day^2 Epoch rev: 33048 Checksum: 329
Satellite: AAUSAT2 Catalog number: 32788 Epoch time: 14156.13829942 Element set: 934 Inclination: 097.7039 deg RA of node: 210.9869 deg Eccentricity: 0.0012961 Arg of perigee: 212.5936 deg Mean anomaly: 147.4483 deg Mean motion: 14.88560432 rev/day Decay rate: 1.978e-05 rev/day^2 Epoch rev: 33045 Checksum: 338
Satellite: DO-64 Catalog number: 32789 Epoch time: 14156.15431179 Element set: 974 Inclination: 097.7221 deg RA of node: 217.3877 deg Eccentricity: 0.0012200 Arg of perigee: 198.1414 deg Mean anomaly: 218.9399 deg Mean motion: 14.93276956 rev/day Decay rate: 3.342e-05 rev/day^2 Epoch rev: 33070 Checksum: 330
Satellite: CO-66 Catalog number: 32791 Epoch time: 14156.14135915 Element set: 931 Inclination: 097.7025 deg RA of node: 208.8074 deg Eccentricity: 0.0013931 Arg of perigee: 218.3758 deg Mean anomaly: 141.6468 deg Mean motion: 14.86531755 rev/day Decay rate: 1.212e-05 rev/day^2 Epoch rev: 33026 Checksum: 307
Satellite: RS-30 Catalog number: 32953 Epoch time: 14156.64058719 Element set: 984 Inclination: 082.5040 deg RA of node: 208.3903 deg Eccentricity: 0.0019014 Arg of perigee: 176.9835 deg Mean anomaly: 183.1366 deg Mean motion: 12.43047704 rev/day Decay rate: 1.0e-07 rev/day^2 Epoch rev: 27382 Checksum: 295
Satellite: METEOR-M Catalog number: 35865 Epoch time: 14156.75557483 Element set: 599 Inclination: 098.5504 deg RA of node: 204.5141 deg Eccentricity: 0.0003066 Arg of perigee: 115.4896 deg Mean anomaly: 244.6596 deg Mean motion: 14.21922970 rev/day Decay rate: -2.4e-07 rev/day^2 Epoch rev: 24471 Checksum: 317
Satellite: RS-38 Catalog number: 35869 Epoch time: 14156.75000038 Element set: 520 Inclination: 098.5441 deg RA of node: 204.3117 deg Eccentricity: 0.0005795 Arg of perigee: 124.2939 deg Mean anomaly: 012.0480 deg Mean motion: 14.22211095 rev/day Decay rate: 3.3e-07 rev/day^2 Epoch rev: 24474 Checksum: 274
Satellite: JUGNU Catalog number: 37839 Epoch time: 14155.81364957 Element set: 630 Inclination: 019.9628 deg RA of node: 329.9313 deg Eccentricity: 0.0018911 Arg of perigee: 208.5558 deg Mean anomaly: 241.6316 deg Mean motion: 14.12310215 rev/day Decay rate: 3.64e-06 rev/day^2 Epoch rev: 13680 Checksum: 299
Satellite: SRMSAT Catalog number: 37841 Epoch time: 14156.78930271 Element set: 635 Inclination: 019.9731 deg RA of node: 343.1100 deg Eccentricity: 0.0011722 Arg of perigee: 158.8771 deg Mean anomaly: 321.7166 deg Mean motion: 14.10352157 rev/day Decay rate: 3.52e-06 rev/day^2 Epoch rev: 13674 Checksum: 278
Satellite: RAX-2 Catalog number: 37853 Epoch time: 14156.05160020 Element set: 823 Inclination: 101.7153 deg RA of node: 179.9060 deg Eccentricity: 0.0217227 Arg of perigee: 091.9173 deg Mean anomaly: 329.1333 deg Mean motion: 14.89266287 rev/day Decay rate: 5.495e-05 rev/day^2 Epoch rev: 14085 Checksum: 300
Satellite: AUBIESAT Catalog number: 37854 Epoch time: 14156.04874832 Element set: 805 Inclination: 101.7191 deg RA of node: 181.7193 deg Eccentricity: 0.0215248 Arg of perigee: 089.1562 deg Mean anomaly: 331.0782 deg Mean motion: 14.90577871 rev/day Decay rate: 5.679e-05 rev/day^2 Epoch rev: 14090 Checksum: 318
Satellite: HRBE Catalog number: 37855 Epoch time: 14156.03102985 Element set: 812 Inclination: 101.7195 deg RA of node: 181.0751 deg Eccentricity: 0.0217525 Arg of perigee: 090.4588 deg Mean anomaly: 324.1546 deg Mean motion: 14.89895960 rev/day Decay rate: 5.931e-05 rev/day^2 Epoch rev: 14087 Checksum: 317
Satellite: RS-39 Catalog number: 38051 Epoch time: 14156.79362457 Element set: 605 Inclination: 051.6264 deg RA of node: 280.0997 deg Eccentricity: 0.0002470 Arg of perigee: 172.1760 deg Mean anomaly: 311.0369 deg Mean motion: 15.59328904 rev/day Decay rate: 4.8678e-04 rev/day^2 Epoch rev: 13233 Checksum: 318
Satellite: E-STAR Catalog number: 38079 Epoch time: 14156.05691916 Element set: 873 Inclination: 069.4536 deg RA of node: 023.6213 deg Eccentricity: 0.0376459 Arg of perigee: 012.5035 deg Mean anomaly: 133.5122 deg Mean motion: 15.06921862 rev/day Decay rate: 8.6603e-04 rev/day^2 Epoch rev: 12163 Checksum: 300
Satellite: GOLIAT Catalog number: 38085 Epoch time: 14156.77051824 Element set: 97 Inclination: 069.4581 deg RA of node: 028.5569 deg Eccentricity: 0.0399156 Arg of perigee: 014.9292 deg Mean anomaly: 346.3246 deg Mean motion: 15.01193716 rev/day Decay rate: 8.4755e-04 rev/day^2 Epoch rev: 12156 Checksum: 332
